When you browse on this site, cookies collect data to enhance your experience and personalize the content and advertising you see.
Visit our Privacy Policy to learn more. By continuing to use the site, you agree to this use of cookies and data.

Hourly Weather Karkaci

Today, 10 August, Monday

Time Temperature Precipitation Wind Pressure Humidity
00:00 +15°C° 0 mm 1 mps 640 mmHg 81%
01:00 +14°C° 0 mm 1 mps 640 mmHg 80%
02:00 +14°C° 0 mm 2 mps 640 mmHg 78%
03:00 +14°C° 0 mm 1 mps 640 mmHg 78%
04:00 +14°C° 0 mm 1 mps 640 mmHg 76%
05:00 +15°C° 0 mm 1 mps 641 mmHg 75%
06:00 +15°C° 0 mm 1 mps 641 mmHg 74%
07:00 +18°C° 0 mm 1 mps 642 mmHg 70%
08:00 +19°C° 0 mm 2 mps 642 mmHg 66%
09:00 +21°C° 0 mm 2 mps 643 mmHg 63%
10:00 +21°C° 0 mm 2 mps 643 mmHg 64%
11:00 +23°C° 0 mm 2 mps 644 mmHg 64%
12:00 +22°C° 0 mm 3 mps 644 mmHg 65%
13:00 +22°C° 0.3 mm 3 mps 643 mmHg 68%
14:00 +23°C° 0.3 mm 2 mps 643 mmHg 70%
15:00 +21°C° 0.3 mm 2 mps 642 mmHg 73%
16:00 +20°C° 0.5 mm 2 mps 642 mmHg 77%
17:00 +20°C° 0.5 mm 2 mps 642 mmHg 81%
18:00 +20°C° 0.5 mm 1 mps 642 mmHg 84%
19:00 +19°C° 0.2 mm 1 mps 642 mmHg 85%
20:00 +18°C° 0.2 mm 1 mps 642 mmHg 85%
21:00 +16°C° 0.2 mm 1 mps 642 mmHg 86%
22:00 +15°C° 0 mm 1 mps 642 mmHg 84%
23:00 +15°C° 0 mm 1 mps 642 mmHg 83%

Tomorrow, 11 August, Tuesday

Time Temperature Precipitation Wind Pressure Humidity
00:00 +15°C° 0 mm 1 mps 642 mmHg 81%
01:00 +14°C° 0 mm 0 mps 642 mmHg 82%
02:00 +14°C° 0 mm 0 mps 641 mmHg 82%
03:00 +13°C° 0 mm 0 mps 641 mmHg 83%
04:00 +14°C° 0 mm 0 mps 642 mmHg 82%
05:00 +15°C° 0 mm 0 mps 642 mmHg 82%
06:00 +15°C° 0 mm 0 mps 642 mmHg 82%
07:00 +18°C° 0 mm 1 mps 643 mmHg 79%
08:00 +20°C° 0 mm 1 mps 643 mmHg 76%
09:00 +20°C° 0 mm 2 mps 643 mmHg 74%
10:00 +21°C° 0.2 mm 2 mps 643 mmHg 73%
11:00 +21°C° 0.2 mm 2 mps 643 mmHg 73%
12:00 +21°C° 0.2 mm 3 mps 643 mmHg 73%
13:00 +21°C° 0.4 mm 3 mps 643 mmHg 74%
14:00 +20°C° 0.4 mm 2 mps 642 mmHg 74%
15:00 +20°C° 0.4 mm 2 mps 642 mmHg 75%
16:00 +19°C° 0.3 mm 2 mps 642 mmHg 78%
17:00 +19°C° 0.3 mm 2 mps 642 mmHg 81%
18:00 +19°C° 0.3 mm 1 mps 642 mmHg 84%
19:00 +18°C° 0.1 mm 1 mps 642 mmHg 87%
20:00 +16°C° 0.1 mm 1 mps 642 mmHg 89%
21:00 +15°C° 0.1 mm 0 mps 642 mmHg 91%
22:00 +14°C° 0 mm 0 mps 642 mmHg 90%
23:00 +14°C° 0 mm 0 mps 642 mmHg 90%

Day after tomorrow, 12 August, Wednesday

Time Temperature Precipitation Wind Pressure Humidity
00:00 +14°C° 0 mm 0 mps 642 mmHg 90%
01:00 +14°C° 0 mm 0 mps 642 mmHg 90%
02:00 +14°C° 0 mm 0 mps 641 mmHg 90%
03:00 +14°C° 0 mm 0 mps 641 mmHg 91%
04:00 +14°C° 0 mm 0 mps 642 mmHg 90%
05:00 +14°C° 0 mm 0 mps 642 mmHg 88%
06:00 +15°C° 0 mm 1 mps 642 mmHg 87%
07:00 +18°C° 0 mm 1 mps 643 mmHg 82%
08:00 +19°C° 0 mm 1 mps 643 mmHg 77%
09:00 +20°C° 0 mm 2 mps 643 mmHg 72%
10:00 +20°C° 0.8 mm 2 mps 644 mmHg 71%
11:00 +21°C° 0.8 mm 2 mps 644 mmHg 70%
12:00 +21°C° 0.8 mm 2 mps 644 mmHg 68%
13:00 +21°C° 0.4 mm 2 mps 643 mmHg 69%
14:00 +20°C° 0.4 mm 2 mps 643 mmHg 71%
15:00 +20°C° 0.4 mm 2 mps 643 mmHg 72%
16:00 +19°C° 0.1 mm 2 mps 643 mmHg 74%
17:00 +20°C° 0.1 mm 1 mps 643 mmHg 77%
18:00 +20°C° 0.1 mm 1 mps 642 mmHg 80%
19:00 +18°C° 0.1 mm 1 mps 642 mmHg 82%
20:00 +16°C° 0.1 mm 1 mps 642 mmHg 85%
21:00 +15°C° 0.1 mm 1 mps 642 mmHg 87%
22:00 +15°C° 0 mm 1 mps 642 mmHg 85%
23:00 +15°C° 0 mm 1 mps 642 mmHg 84%

13 August, Thursday

Time Temperature Precipitation Wind Pressure Humidity
00:00 +15°C° 0 mm 1 mps 642 mmHg 83%
01:00 +15°C° 0 mm 1 mps 642 mmHg 82%
02:00 +15°C° 0 mm 1 mps 641 mmHg 81%
03:00 +14°C° 0 mm 1 mps 641 mmHg 81%
04:00 +15°C° 0 mm 1 mps 641 mmHg 80%
05:00 +15°C° 0 mm 1 mps 642 mmHg 79%
06:00 +16°C° 0 mm 1 mps 642 mmHg 78%
07:00 +19°C° 0.1 mm 1 mps 642 mmHg 74%
08:00 +19°C° 0.1 mm 2 mps 643 mmHg 70%
09:00 +21°C° 0.1 mm 2 mps 643 mmHg 66%
10:00 +21°C° 0.7 mm 2 mps 643 mmHg 66%
11:00 +23°C° 0.7 mm 2 mps 643 mmHg 65%
12:00 +22°C° 0.7 mm 3 mps 643 mmHg 65%
13:00 +21°C° 0.7 mm 2 mps 642 mmHg 67%
14:00 +21°C° 0.7 mm 2 mps 642 mmHg 69%
15:00 +20°C° 0.7 mm 2 mps 641 mmHg 72%
16:00 +20°C° 0.2 mm 1 mps 641 mmHg 74%
17:00 +20°C° 0.2 mm 1 mps 641 mmHg 77%
18:00 +19°C° 0.2 mm 1 mps 641 mmHg 80%
19:00 +19°C° 0 mm 1 mps 641 mmHg 81%
20:00 +18°C° 0 mm 1 mps 641 mmHg 82%
21:00 +16°C° 0 mm 1 mps 641 mmHg 83%
22:00 +18°C° 0 mm 1 mps 641 mmHg 82%
23:00 +18°C° 0 mm 1 mps 641 mmHg 81%

14 August, Friday

Time Temperature Precipitation Wind Pressure Humidity
00:00 +18°C° 0 mm 1 mps 641 mmHg 80%
01:00 +18°C° 0 mm 1 mps 641 mmHg 82%
02:00 +16°C° 0 mm 1 mps 641 mmHg 83%
03:00 +16°C° 0 mm 1 mps 641 mmHg 84%
04:00 +16°C° 0 mm 1 mps 641 mmHg 85%
05:00 +16°C° 0 mm 1 mps 641 mmHg 87%
06:00 +16°C° 0 mm 1 mps 641 mmHg 88%
07:00 +16°C° 0.1 mm 1 mps 641 mmHg 88%
08:00 +16°C° 0.1 mm 1 mps 641 mmHg 88%
09:00 +17°C° 0.1 mm 2 mps 641 mmHg 88%
10:00 +17°C° 0.1 mm 2 mps 641 mmHg 88%
11:00 +17°C° 0.1 mm 2 mps 641 mmHg 87%
12:00 +17°C° 0.1 mm 2 mps 641 mmHg 87%
13:00 +17°C° 0.2 mm 2 mps 641 mmHg 88%
14:00 +17°C° 0.2 mm 2 mps 641 mmHg 90%
15:00 +16°C° 0.2 mm 2 mps 641 mmHg 91%
16:00 +16°C° 0.2 mm 1 mps 640 mmHg 93%
17:00 +16°C° 0.2 mm 1 mps 640 mmHg 94%
18:00 +15°C° 0.2 mm 1 mps 640 mmHg 96%
19:00 +15°C° 0.3 mm 1 mps 641 mmHg 97%
20:00 +15°C° 0.3 mm 1 mps 641 mmHg 97%
21:00 +15°C° 0.3 mm 1 mps 642 mmHg 98%
22:00 +14°C° 0.2 mm 1 mps 641 mmHg 97%
23:00 +14°C° 0.2 mm 1 mps 641 mmHg 96%

15 August, Saturday

Time Temperature Precipitation Wind Pressure Humidity
00:00 +13°C° 0.2 mm 1 mps 641 mmHg 96%
01:00 +13°C° 0.3 mm 1 mps 641 mmHg 95%
02:00 +13°C° 0.3 mm 1 mps 641 mmHg 95%
03:00 +13°C° 0.3 mm 1 mps 641 mmHg 95%
04:00 +13°C° 0.1 mm 1 mps 641 mmHg 95%
05:00 +13°C° 0.1 mm 1 mps 641 mmHg 94%
06:00 +12°C° 0.1 mm 0 mps 641 mmHg 94%
07:00 +13°C° 0.1 mm 1 mps 642 mmHg 93%
08:00 +13°C° 0.1 mm 1 mps 642 mmHg 91%
09:00 +13°C° 0.1 mm 1 mps 642 mmHg 90%
10:00 +13°C° 0.1 mm 1 mps 642 mmHg 88%
11:00 +14°C° 0.1 mm 1 mps 642 mmHg 85%
12:00 +14°C° 0.1 mm 1 mps 642 mmHg 83%
13:00 +14°C° 0.1 mm 1 mps 642 mmHg 83%
14:00 +14°C° 0.1 mm 1 mps 642 mmHg 82%
15:00 +14°C° 0.1 mm 1 mps 642 mmHg 81%
16:00 +14°C° 0 mm 1 mps 642 mmHg 82%
17:00 +14°C° 0 mm 1 mps 642 mmHg 83%
18:00 +14°C° 0 mm 1 mps 642 mmHg 84%
19:00 +13°C° 0 mm 1 mps 642 mmHg 86%
20:00 +13°C° 0 mm 1 mps 642 mmHg 88%
21:00 +11°C° 0 mm 0 mps 642 mmHg 90%
22:00 +12°C° 0 mm 1 mps 642 mmHg 89%
23:00 +12°C° 0 mm 1 mps 642 mmHg 88%
Show more